Orbital elements:
2008 CO116                                               Earth MOID = 0.0646 AU
Epoch 2007 Oct. 27.0 TT = JDT 2454400.5                 MPC
M 330.13134              (2000.0)            P               Q
n   0.47197102     Peri.  300.25905     +0.13326043     -0.97366416
a   1.6337759      Node   140.70151     +0.97969718     +0.10120603
e   0.4404376      Incl.   16.98194     +0.14978350     +0.20429253
P   2.09           H   21.2           G   0.15           U   8
Residuals in seconds of arc
080211 703  0.8+  0.3-    080211 A17  0.7+  0.3+    080212 673  0.1+  0.3+
080211 703  1.8+  0.4-    080211 143  0.3+  0.1-    080212 673  1.0+  0.8+
080211 703  1.4+  0.3+    080211 143  0.6+  0.1-    080212 673  0.0   0.4+
080211 703  1.0+  0.5+    080211 473  0.6+  0.2-    080212 J71  0.0   0.5+
080211 703  0.1+  0.1-    080211 473  1.4+  0.2-    080212 J71  1.2-  1.3+
080211 703  0.7+  0.1-    080211 595  0.3+  0.7+    080212 246  0.7-  1.0-
080211 703  0.3+  1.2-    080211 J95  0.2+  0.3+    080212 246  0.4-  0.4-
080211 703  0.4+  0.1+    080211 J95  0.2+  0.1+    080212 246 (3.1+  0.8-)
080211 673  1.0+  1.1+    080211 J66  0.3-  0.1+    080212 246  0.1-  0.1-
080211 703  1.5-  0.8+    080211 J95  0.5+  0.0     080212 246  0.5-  0.8-
080211 673  0.2+  0.3-    080211 J66  0.6+  0.2-    080212 204  0.1+  0.1+
080211 703  0.3-  1.2+    080211 J66  0.3+  0.1-    080212 204  0.2-  0.0
080211 703  0.4+  0.2+    080211 J66  0.2+  0.2+    080212 204  0.1-  0.0
080211 703  0.3-  2.2-    080211 595  0.6+  1.3+    080212 A24  0.8-  0.0
080211 673  0.6+  0.9+    080211 J66  0.9+  0.3-    080212 A24  0.7-  1.1-
080211 673  0.0   0.3+    080211 J66  0.0   1.0+    080212 A24  0.4-  1.3-
080211 118  0.6-  1.1-    080211 J66  0.2+  0.3+    080212 A24  0.9+  0.2+
080211 118  0.6+  0.6+    080211 246  0.6+  0.4+    080212 A24  1.3+  0.3-
080211 118  0.1+  0.5-    080211 246  0.2-  0.3-    080212 A24  0.1+  0.5+
080211 118  1.0+  0.1-    080211 246  0.0   0.6-    080212 A24  1.1+  0.1-
080211 A17  0.9+  0.0     080211 246  0.6-  0.3-    080212 A24 (3.1+  1.7+)
080211 A17  0.4+  0.5-    080211 246  0.5-  0.0     080212 A24  2.8+  1.4+
080211 151  0.1-  0.1-    080212 854  0.2+  0.0     080213 G96  0.6+  0.4+
080211 151  0.3+  0.3+    080212 854  0.2+  0.1-    080213 G96  0.0   0.1-
080211 151  1.3+  0.4+    080212 854  0.4+  0.1+    080213 G96  0.0   0.0
080211 A17  0.1+  0.3-    080212 673  1.2+  1.0+

Ephemeris:
2008 CO116               a,e,i = 1.63, 0.44, 17                  q = 0.9142
Date    TT    R. A. (2000) Decl.     Delta      r     Elong.  Phase     V
2008 02 14    05 34.34   +17 05.4    0.139    1.062   119.1    54.3    19.0
2008 02 24    07 07.22   +34 05.3    0.193    1.120   128.6    43.7    19.6
2008 03 05    08 13.25   +39 56.7    0.272    1.182   129.0    40.7    20.3
2008 03 15    08 58.34   +41 05.2    0.365    1.247   126.6    39.8    21.1
2008 03 25    09 30.98   +40 17.4    0.466    1.313   123.4    39.4    21.7

Gareth V. Williams           (C) Copyright 2008 MPC           M.P.E.C. 2008-C86

Read MPEC 2008-C85 Read MPEC 2008-C87


Our Web policy. Index to the CBAT/MPC/ICQ pages.

